Simultaneous Nadir Overpasses (SNOs) Predictions

Prediction of SNOs between NOAA-15 and METOP-C Satellite Orbit:

Table of predicted SNOs for the next 14.0 days since TLE Epoch: 11/26/2022
Index Date (NOAA-15) Time (NOAA-15) Lat,Lon (NOAA-15) SZA (NOAA-15 ) Date (METOP-C) Time (METOP-C) Lat,Lon (METOP-C) SZA (METOP-C ) Distance(km) Time Diff (sec)
1 11/29/2022 00:38:53 81.07,-151.15 104.61 11/29/2022 00:37:38 81.06,-151.04 104.59 2.10 75
2 11/29/2022 01:29:19 -81.06, 16.46 75.37 11/29/2022 01:28:19 -81.06, 16.36 75.40 1.88 60
3 11/29/2022 02:19:54 81.06,-176.21 104.64 11/29/2022 02:18:59 81.07,-176.15 104.63 1.67 55
4 11/29/2022 03:10:21 -81.07, -8.97 75.37 11/29/2022 03:09:41 -81.06, -9.12 75.41 2.78 40
5 11/29/2022 04:00:56 81.07, 158.36 104.64 11/29/2022 04:00:21 81.06, 158.37 104.62 0.33 35
6 11/29/2022 04:51:23 -81.07, -34.40 75.37 11/29/2022 04:51:02 -81.07, -34.24 75.37 2.89 21
7 11/29/2022 05:41:57 81.06, 133.29 104.66 11/29/2022 05:41:42 81.07, 133.26 104.66 1.80 15
8 11/29/2022 06:32:24 -81.06, -59.46 75.35 11/29/2022 06:32:23 -81.08, -59.35 75.33 2.31 1
9 11/29/2022 07:22:59 81.07, 107.86 104.66 11/29/2022 07:23:04 81.07, 107.78 104.65 1.53 5
10 11/29/2022 08:13:26 -81.07, -84.89 75.35 11/29/2022 08:13:45 -81.07, -84.83 75.34 1.03 19
11 11/29/2022 09:04:01 81.07, 82.43 104.66 11/29/2022 09:04:26 81.06, 82.29 104.65 2.71 25
12 11/29/2022 09:54:28 -81.08,-110.32 75.35 11/29/2022 09:55:07 -81.07,-110.32 75.35 1.66 39
13 11/29/2022 10:45:02 81.07, 57.37 104.68 11/29/2022 10:45:47 81.07, 57.18 104.69 3.33 45
14 11/29/2022 11:35:29 -81.07,-135.38 75.33 11/29/2022 11:36:28 -81.07,-135.43 75.31 0.83 59



Historial Predications of SNOs between NOAA-15 and METOP-C
